Hourly Data Report for September 05, 2020

GIMLI CLIMATE
MANITOBA
Current Station Operator: ECCC - MSC

50°38'00.000" N
97°03'00.000" W
230.10 m
5031042
71748
PGH

Download Data

Hourly Data (September 2020)
Hourly Data Report for September 5, 2020
TIME Temp Definition
°C
Dew Point Definition
°C
Rel Hum Definition
%
Wind Dir Definition
10's deg

Wind Spd Definition
km/h
Visibility Definition
km
Stn Press Definition
kPa
Hmdx Definition


Wind Chill Definition


Weather Definition


00:00 7.8 4.9 82 29 6   99.05     LegendNANA
01:00 8.0 5.2 82 26 4   99.08     LegendNANA
02:00 7.2 5.3 88 27 5   99.09     LegendNANA
03:00 6.3 5.0 91 28 3   99.11     LegendNANA
04:00 6.2 5.1 93 27 5   99.14     LegendNANA
05:00 6.0 5.0 93 26 4   99.15     LegendNANA
06:00 5.9 4.9 93 24 3   99.18     LegendNANA
07:00 7.2 6.2 94   0   99.21     LegendNANA
08:00 11.2 8.1 81 22 3   99.25     LegendNANA
09:00 14.2 6.6 60 20 3   99.25     LegendNANA
10:00 17.1 6.6 50 14 5   99.22     LegendNANA
11:00 18.7 9.6 55 10 10   99.20     LegendNANA
12:00 17.7 9.5 59 12 12   99.16     LegendNANA
13:00 18.5 11.0 62 11 11   99.11     LegendNANA
14:00 19.9 9.3 50 13 11   99.00     LegendNANA
15:00 19.5 9.7 53 12 13   98.93     LegendNANA
16:00 18.0 10.0 59 11 9   98.85     LegendNANA
17:00 18.9 10.9 60 11 10   98.77     LegendNANA
18:00 18.1 12.1 68 10 8   98.67     LegendNANA
19:00 17.6 11.9 69 12 10   98.58     LegendNANA
20:00 17.2 11.6 69 12 8   98.54     LegendNANA
21:00 17.2 11.7 70 13 12   98.42     LegendNANA
22:00 17.2 10.9 66 16 14   98.31     LegendNANA
23:00 16.1 10.2 68 16 9   98.18     LegendNANA

Notes on Data Quality.

Legend

  • E = Estimated
  • M = Missing
  • NA = Not Available*
  • [empty] = Indicates an unobserved value
Date modified: